Home   Weather   Olean   Past weeks
Flag for USA

Past Weather in Olean, New York, USA — Yesterday and Last 2 Weeks

Now
41 °F

Mostly cloudy.


Feels Like: 37 °F
Forecast: 45 / 42 °F
Wind: 6 mph from Southwest

Location: Olean Municipal

Current Time: Oct 16, 2019 at 11:17:53 pm

Latest Report: Oct 16, 2019 at 10:35 pm


Visibility: 10 mi

Pressure: 29.50 "Hg

Humidity: 100%

Dew Point: 41 °F

Location of OleanLocation

Past Weather in Olean — Graph

°F

Olean Temperature Yesterday

Maximum temperature yesterday: 57 °F (at 3:35 pm)
Minimum temperature yesterday: 32 °F (at 7:35 am)
Average temperature yesterday: 44 °F

High & Low Weather Summary for the Past Weeks

 TemperatureHumidityPressure
High72 °F (Oct 2, 10:15 am)100% (Oct 1, 9:15 pm)30.39 "Hg (Oct 1, 9:15 pm)
Low32 °F (Oct 13, 6:55 am)22% (Oct 11, 1:55 pm)29.51 "Hg (Oct 16, 9:55 pm)
Average48 °F85%30.10 "Hg
* Reported Oct 1 9:15 pm — Oct 16 9:55 pm, Olean. Weather by CustomWeather, © 2019

Note: Actual official high and low records may vary slightly from our data, if they occured in-between our weather recording intervals... More about our weather records

Advertising

Olean Weather History for the Previous 24 Hours

Scroll right to see more
 ConditionsComfort  
Time TempWeatherWind HumidityBarometerVisibility
9:55 pm
Wed, Oct 16
41 °FMostly cloudy.6 mph100%29.51 "Hg10 mi
9:35 pm41 °FRain. Overcast.9 mph100%29.52 "Hg10 mi
9:15 pm41 °FOvercast.7 mph100%29.52 "Hg10 mi
8:55 pm41 °FOvercast.7 mph100%29.52 "Hg10 mi
8:35 pm41 °FOvercast.10 mph100%29.52 "Hg10 mi
7:55 pm41 °FOvercast.7 mph100%29.53 "Hg10 mi
7:35 pm41 °FDrizzle. Overcast.5 mph100%29.54 "Hg10 mi
7:15 pm41 °FMostly cloudy.10 mph100%29.54 "Hg10 mi
6:55 pm41 °FMostly cloudy.5 mph100%29.54 "Hg10 mi
6:35 pm41 °FOvercast.9 mph100%29.54 "Hg10 mi
6:15 pm41 °FMostly cloudy.7 mph100%29.55 "Hg10 mi
5:55 pm43 °FMostly cloudy.8 mph100%29.54 "Hg10 mi
5:35 pm43 °FLight rain. Cloudy.9 mph100%29.54 "Hg7 mi
5:15 pm45 °FDrizzle. Mostly cloudy.No wind100%29.54 "Hg10 mi
4:55 pm45 °FMore clouds than sun.3 mph100%29.53 "Hg10 mi
4:35 pm45 °FCloudy.3 mph100%29.54 "Hg10 mi
3:55 pm43 °FDrizzle. Cloudy.3 mph100%29.54 "Hg10 mi
3:35 pm43 °FRain. Cloudy.3 mph100%29.54 "Hg10 mi
3:15 pm43 °FLight rain. More clouds than sun.5 mph100%29.54 "Hg7 mi
2:55 pm45 °FRain. More clouds than sun.3 mph100%29.56 "Hg10 mi
2:35 pm45 °FHeavy rain. More clouds than sun.No wind100%29.58 "Hg7 mi
2:15 pm45 °FRain. Mostly cloudy.No wind100%29.59 "Hg10 mi
1:55 pm45 °FDrizzle. Overcast.5 mph100%29.60 "Hg10 mi
1:35 pm45 °FLight rain. More clouds than sun.5 mph100%29.61 "Hg10 mi
1:15 pm45 °FLight rain. Cloudy.6 mph100%29.61 "Hg10 mi
12:55 pm45 °FRain. More clouds than sun.12 mph100%29.62 "Hg5 mi
12:35 pm46 °FHeavy rain. Low clouds.10 mph100%29.63 "Hg2 mi
12:15 pm46 °FHeavy rain. Low clouds.3 mph100%29.61 "Hg1 mi
11:55 am46 °FHeavy rain. Low clouds.6 mph100%29.61 "Hg3 mi
11:35 am46 °FRain. Low clouds.10 mph100%29.61 "Hg4 mi
11:15 am46 °FHeavy rain. Low clouds.13 mph100%29.61 "Hg4 mi
10:55 am46 °FRain. Mostly cloudy.14 mph100%29.61 "Hg5 mi
10:35 am46 °FRain. Overcast.12 mph100%29.62 "Hg10 mi
10:15 am46 °FLight rain. Overcast.14 mph100%29.63 "Hg10 mi
9:35 am46 °FRain. Cloudy.12 mph100%29.64 "Hg5 mi
9:15 am48 °FCloudy.10 mph82%29.66 "Hg10 mi
8:55 am50 °FOvercast.12 mph76%29.64 "Hg10 mi
8:35 am48 °FDrizzle. Overcast.9 mph82%29.64 "Hg10 mi
8:15 am50 °FThundershowers. Overcast.12 mph71%29.65 "Hg10 mi
7:55 am50 °FMostly cloudy.10 mph71%29.66 "Hg10 mi
7:35 am50 °FOvercast.13 mph71%29.67 "Hg10 mi
7:15 am50 °FOvercast.10 mph67%29.67 "Hg10 mi
6:55 am50 °FMostly cloudy.13 mph67%29.68 "Hg10 mi
6:35 am50 °FPassing clouds.13 mph67%29.70 "Hg10 mi
6:15 am50 °FClear.12 mph67%29.71 "Hg10 mi
5:55 am50 °FPassing clouds.10 mph67%29.72 "Hg10 mi
5:35 am50 °FPartly cloudy.12 mph67%29.73 "Hg10 mi
5:15 am50 °FMostly cloudy.9 mph67%29.75 "Hg10 mi
4:55 am48 °FOvercast.9 mph71%29.75 "Hg10 mi
4:35 am48 °FOvercast.8 mph71%29.76 "Hg10 mi
4:15 am48 °FPassing clouds.7 mph66%29.77 "Hg10 mi
3:55 am46 °FPassing clouds.8 mph71%29.78 "Hg10 mi
3:35 am46 °FPassing clouds.9 mph71%29.79 "Hg10 mi
3:15 am46 °FClear.9 mph71%29.80 "Hg10 mi
2:55 am46 °FClear.9 mph71%29.81 "Hg10 mi
2:35 am46 °FClear.8 mph71%29.82 "Hg10 mi
2:15 am46 °FClear.6 mph71%29.83 "Hg10 mi
1:55 am46 °FPassing clouds.7 mph71%29.84 "Hg10 mi
1:35 am46 °FPassing clouds.8 mph71%29.85 "Hg10 mi
1:15 am46 °FClear.9 mph71%29.85 "Hg10 mi
12:55 am48 °FClear.8 mph66%29.86 "Hg10 mi
11:55 pm
Tue, Oct 15
46 °FClear.10 mph71%29.89 "Hg10 mi
11:35 pm46 °FClear.8 mph71%29.90 "Hg10 mi
11:15 pm46 °FClear.9 mph71%29.90 "Hg10 mi
Weather by CustomWeather, © 2019

See weather overview